Terminal Aerodrome Forecast
Issued by NWS Blacksburg, VA

Home | Current Version | Previous Version | Text Only | Print | Product List | Glossary On
Versions: 1 2 3 4 5 6 7 8 9 10 11 12 13 14 15 16 17 18 19 20 21 22 23 24 25 26 27 28 29 30 31 32 33 34 35 36 37 38 39 40 41 42 43 44 45 46 47 48 49 50
000
FTUS41 KRNK 050701 AAB
TAFLYH
TAF AMD
KLYH 050701Z 0507/0606 02004KT 3SM -RA BR SCT002 OVC025
     FM051400 05007KT 4SM -RAPL BR OVC005
     FM051600 03008KT 3SM -PL BR OVC008
     FM052000 03004KT 2SM -SN BR OVC012=

USA.gov is the U.S. government's official web portal to all federal, state and local government web resources and services.